Simultaneous Nadir Overpasses (SNOs) Predictions

Prediction of SNOs between METOP-B and NOAA-19 Satellite Orbit:

Table of predicted SNOs for the next 14.0 days since TLE Epoch: 3/1/2019
Index Date (METOP-B) Time (METOP-B) Lat,Lon (METOP-B) SZA (METOP-B ) Date (NOAA-19) Time (NOAA-19) Lat,Lon (NOAA-19) SZA (NOAA-19 ) Distance(km) Time Diff (sec)
1 03/06/2019 14:27:34 -79.15, 158.12 95.05 03/06/2019 14:26:22 -79.14, 156.73 95.11 29.19 72
2 03/06/2019 15:18:17 79.06, -35.21 84.83 03/06/2019 15:17:16 79.05, -35.25 84.82 1.03 61
3 03/06/2019 16:08:59 -79.03, 131.94 95.22 03/06/2019 16:08:20 -79.05, 132.00 95.20 2.76 39
4 03/06/2019 16:59:38 79.04, -60.64 84.79 03/06/2019 16:59:16 79.06, -60.77 84.79 3.09 22
5 03/06/2019 17:50:19 -79.05, 106.75 95.22 03/06/2019 17:50:19 -79.02, 106.74 95.25 3.38 0
6 03/06/2019 18:41:00 79.03, -86.07 84.74 03/06/2019 18:41:16 79.03, -86.03 84.74 1.06 16
7 03/06/2019 19:31:41 -79.04, 81.32 95.27 03/06/2019 19:32:20 -79.02, 81.21 95.28 2.71 39
8 03/06/2019 20:22:22 79.02,-111.51 84.70 03/06/2019 20:23:17 79.03,-111.55 84.72 1.53 55




NCC Satellite Simultaneous Nadir Overpasses (SNOs) Prediction Service
